Location: Alafon
(8.4500°N, 4.2333°E)
Time: 14:05:05
(UTC+00:00)

Vanguard 1 Rocket - Pass Details

Date: 01 August 2021
Orbit: 650 x 4226 km, 34.3° (Epoch: 27 September)

Event Time Altitude Azimuth Distance (km) Brightness Sun altitude
Rises 19:15:33 0° 270° (W) 2,947 11.3 -17.5°
Reaches altitude 10° 19:18:48 10° 242° (WSW) 2,093 9.8 -18.3°
Maximum altitude 19:21:12 14° 210° (SSW) 1,963 9.2 -18.8°
Drops below altitude 10° 19:23:54 10° 178° (S) 2,429 9.4 -19.4°
Enters shadow 19:24:27 - 174° (S) 2,579 9.4 -19.5°
